Location: Sumter
(33.9203°N, 80.3401°W)
Time: 22:48:50
(UTC+00:00)

Envisat - Visible Passes

Search period start: 08 August 2022 00:00
Search period end: 18 August 2022 00:00
Orbit: 763 x 765 km, 98.2° (Epoch: 08 August)

Date Brightness Start Highest point End Pass type
(mag) Time Alt. Az. Time Alt. Az. Time Alt. Az.
08 Aug 5.0 08:54:40 10° NE 08:58:49 25° E 09:02:56 10° SSE visible
09 Aug 3.0 09:55:55 10° N 10:00:59 74° WNW 10:06:02 10° SSW visible
10 Aug 4.0 09:19:10 10° NNE 09:24:03 46° E 09:28:53 10° S visible
11 Aug 5.4 08:43:21 10° NE 08:46:56 19° E 08:50:28 10° SE visible
12 Aug 3.1 09:44:06 10° NNE 09:49:12 85° ESE 09:54:16 10° SSW visible
13 Aug 4.5 09:07:34 10° NNE 09:12:12 35° E 09:16:47 10° SSE visible
14 Aug 5.6 08:32:19 10° ENE 08:35:01 14° E 08:37:42 10° SE visible
14 Aug 3.2 10:09:21 10° N 10:14:16 52° WNW 10:19:10 10° SSW visible
15 Aug 3.4 09:32:20 10° NNE 09:37:23 65° E 09:42:25 10° S visible
16 Aug 4.9 08:56:05 10° NE 09:00:20 26° E 09:04:33 10° SSE visible
17 Aug 5.9 08:22:12 10° E 08:23:05 10° E 08:23:59 10° ESE visible
17 Aug 3.0 09:57:26 10° N 10:02:29 69° WNW 10:07:31 10° SSW visible
